Wind_Speed
13 10 8 6 11 10 9 4 3 3 8 14 5 14 15 20 18 16 12 10 9 10 10 9 9 10 7 8 7 11 14 14 16 18 15 14 17 17 10 9 10 5 7 12
13 1 11 7 7 11 13 5 5 4 10 18 14 8 11 19 18 16 13 11 10 10 11 11 10 5 5 4 9 12 12 14 11 14 15 11 16 19 14 12 10 13 11 10
13 15 8 6 11 9 9 11 12 17 10 17 5 12 17 14 14 13 9 14 10 11 6 6 14 9 7 6 9 10 9 10 10 14 19 15 16 20 17 18 15 16 14 13
6 8 7 7 7 12 9 11 16 18 17 10 8 2 4 5 7 7 10 14 12 11 9 11 12 11 8 14 12 10 8 13 15 16 12 16 15 14 15 14 14 15 12 11
0 5 7 11 12 10 12 16 16 20 19 5 0 5 4 13 10 6 11 11 12 11 11 5 6 9 10 5 4 15 19 19 15 15 14 14 16 16 17 17 16 16 15 14
4 5 5 10 6 3 11 16 22 18 9 4 5 1 7 8 6 13 9 12 11 8 5 3 5 6 2 6 14 14 16 15 16 17 17 19 18 18 19 17 16 17 16 17
6 19 24 7 11 14 20 18 11 10 11 11 7 14 8 15 15 13 10 8 7 4 5 3 9 5 2 17 15 14 16 18 19 17 18 17 16 18 18 17 17 18 15 15
2 1 14 5 7 10 12 13 10 15 14 15 18 6 4 13 11 8 9 8 6 5 10 8 12 16 15 17 15 13 14 17 21 19 16 17 18 18 18 19 16 16 14 14
11 0 14 4 7 12 7 12 13 11 16 9 8 8 3 4 6 7 9 5 3 13 9 7 6 11 21 13 13 13 17 18 17 17 17 18 18 19 19 18 16 15 14 12
11 12 4 8 6 13 13 14 8 7 8 11 9 13 5 9 8 9 7 15 11 5 9 9 21 16 15 18 20 22 21 17 16 16 15 16 16 18 15 16 16 14 14 10
11 7 15 15 3 9 9 11 7 4 2 4 4 6 8 14 10 11 11 11 13 13 8 12 16 18 20 22 20 19 19 15 17 18 16 17 18 16 15 16 15 13 9 10
9 4 7 10 10 5 12 7 9 6 10 9 15 5 10 11 9 12 12 11 9 6 14 16 22 19 20 21 20 17 18 18 17 16 18 17 18 17 17 16 17 13 11 10
10 6 6 1 9 9 5 9 9 9 8 1 4 4 9 10 11 11 12 7 6 14 12 15 16 17 19 15 16 18 16 15 15 15 20 19 19 19 17 16 15 15 12 10
5 3 5 7 8 4 5 9 10 10 8 9 11 12 9 11 11 11 8 9 11 11 14 12 14 16 15 13 15 15 15 16 18 16 15 19 18 17 18 17 13 13 12 11
3 5 4 6 5 6 4 9 6 8 8 7 13 14 9 7 9 11 11 11 12 13 13 10 13 13 13 13 14 14 13 15 15 12 17 15 15 15 18 19 15 15 14 14
4 4 9 10 3 3 2 7 14 13 12 11 10 9 7 11 12 10 9 9 10 11 11 9 12 12 14 11 11 11 13 15 16 15 15 14 11 14 16 16 16 17 17 15
3 1 5 2 15 7 8 13 10 10 12 11 10 11 10 10 6 7 8 11 12 12 8 9 12 8 9 10 8 10 12 13 16 15 15 14 13 14 11 11 12 12 13 14
3 6 7 5 11 2 5 11 12 11 10 11 11 12 11 6 13 12 12 11 10 8 10 11 10 9 8 7 10 12 13 10 13 13 13 17 15 14 9 10 11 12 11 11
3 5 2 3 3 13 10 12 10 8 13 15 13 12 13 11 12 10 9 12 9 10 8 9 7 7 6 8 9 11 13 12 13 13 13 16 14 14 15 15 15 15 13 11
3 6 7 3 3 3 7 12 9 9 5 12 12 12 12 11 6 6 9 10 9 9 7 8 8 6 6 8 11 11 12 10 9 10 10 10 9 11 12 11 9 9 10 10
7 5 2 3 1 7 14 14 12 6 5 10 10 11 10 9 9 9 7 10 6 7 6 6 4 5 6 7 9 11 10 9 8 8 6 7 6 11 10 9 11 12 13 10
6 5 3 7 6 5 14 9 7 6 8 9 10 10 8 11 9 6 6 7 5 5 4 6 3 4 5 7 8 9 8 8 6 6 8 8 7 7 8 12 12 14 14 12
5 8 5 6 6 7 10 9 7 8 8 9 9 7 4 7 7 5 3 5 9 5 3 5 3 3 4 6 7 6 6 6 6 5 5 4 7 8 7 15 17 16 17 16
13 17 9 7 10 9 7 7 9 9 8 8 7 6 7 10 5 3 6 5 2 2 1 3 2 3 4 6 5 5 4 5 6 4 4 3 5 7 11 13 13 14 13 13
8 9 8 7 8 8 9 9 7 6 5 6 8 7 5 8 6 4 4 2 3 1 2 1 1 4 4 5 5 4 3 6 6 8 4 4 7 4 2 9 8 8 14 14
11 9 6 4 8 7 7 6 4 4 6 6 4 4 9 7 4 4 6 4 3 3 4 3 3 3 3 3 5 5 4 5 9 10 7 8 9 9 4 5 6 5 10 13
Wind_Direction
195 218 246 31 222 320 1 143 64 306 301 311 344 144 157 123 128 117 125 124 120 133 147 139 113 101 96 78 60 54 43 31 25 3 355 351 343 331 345 38 25 44 3 332
210 254 237 359 334 316 322 353 80 277 249 255 294 194 143 141 121 121 142 146 142 149 141 138 146 144 124 81 84 66 52 30 24 359 345 357 339 323 12 17 12 348 349 325
121 226 22 320 312 6 24 355 343 325 257 273 294 37 48 37 83 124 124 129 122 81 84 96 64 27 37 42 72 45 43 33 15 13 356 358 340 343 352 347 343 336 339 325
96 73 311 276 50 8 346 352 324 312 308 332 92 262 136 62 60 149 130 102 100 119 115 78 69 53 28 34 37 26 30 43 16 3 356 343 331 331 332 322 329 325 319 319
324 298 275 36 17 355 344 327 297 293 284 68 348 124 79 150 229 144 100 105 115 109 104 103 52 58 7 288 66 39 37 34 20 12 355 343 343 336 328 335 339 342 348 345
105 25 355 356 329 285 295 319 310 295 303 302 126 351 40 31 101 108 102 102 100 105 107 39 97 53 40 325 15 360 34 19 3 358 1 359 0 354 354 352 357 352 348 341
300 13 345 331 338 3 353 335 324 347 327 335 346 67 39 64 64 104 124 117 123 89 31 74 68 25 332 13 7 23 17 0 357 16 5 2 356 350 349 352 350 338 336 343
290 52 232 293 358 348 341 346 344 325 316 301 46 61 32 59 87 102 124 134 87 76 41 52 38 22 359 46 41 31 7 17 14 17 6 355 3 6 360 349 344 338 342 344
318 25 256 82 337 318 9 337 328 286 277 273 122 93 84 131 91 87 108 70 24 65 62 33 13 26 71 40 21 14 25 8 15 7 358 14 17 10 359 359 357 357 353 356
324 338 24 312 7 46 2 328 348 332 322 338 103 80 75 107 108 91 62 76 104 153 72 26 51 47 30 13 29 23 27 19 3 355 14 20 8 356 358 2 357 354 360 14
24 342 314 321 51 360 17 8 350 359 302 338 274 78 77 85 62 78 90 78 60 55 17 43 49 34 15 17 9 16 11 4 4 24 28 7 356 6 360 5 359 356 7 17
54 315 307 334 69 29 59 20 10 349 343 39 328 65 76 59 59 96 92 73 65 22 37 20 33 21 10 22 23 5 14 12 18 34 6 10 6 3 359 3 5 13 22 15
355 32 318 78 80 15 51 19 13 347 296 99 333 96 62 51 78 71 70 63 56 48 37 38 27 11 39 16 8 27 8 19 9 23 16 13 12 9 11 10 11 13 23 17
333 283 281 329 29 303 58 51 11 44 22 350 37 96 59 40 27 103 76 36 27 49 47 44 19 34 33 17 27 8 15 12 16 21 18 18 12 13 14 21 16 16 16 10
14 301 306 67 360 22 44 45 46 26 44 356 23 48 39 29 20 45 43 35 17 45 54 27 30 36 19 27 23 16 9 18 14 26 20 10 10 16 20 26 27 30 35 30
66 336 298 22 66 17 64 65 24 23 6 22 37 57 30 42 52 53 46 16 41 42 52 17 39 29 48 19 14 11 14 13 16 25 30 8 360 20 26 27 27 38 39 38
332 299 274 42 265 253 48 30 28 8 48 43 21 16 2 18 63 117 64 45 52 63 27 30 58 34 32 15 20 10 16 20 18 9 7 360 12 19 15 24 21 21 25 29
285 320 345 202 224 97 97 49 21 1 51 49 26 1 2 39 75 65 46 62 49 46 42 25 37 36 29 27 19 6 6 14 14 3 7 359 14 21 17 30 26 21 25 35
17 94 340 285 189 116 26 33 12 359 53 27 6 355 5 20 106 78 76 61 63 55 45 45 40 47 38 27 8 8 357 3 16 7 9 7 26 38 34 36 37 35 34 34
224 241 268 13 316 113 42 4 5 317 54 2 8 5 3 347 55 72 74 70 62 64 38 31 65 45 30 17 6 0 353 17 3 2 7 2 33 30 24 22 18 13 6 3
291 253 165 146 63 84 7 17 325 37 7 3 17 13 29 37 71 104 76 76 64 67 35 56 61 56 26 3 355 348 352 16 359 5 6 9 27 25 22 12 17 18 19 30
270 71 317 22 25 48 12 32 45 6 8 31 22 28 33 87 86 78 56 70 55 65 25 82 23 34 3 3 354 356 20 1 25 33 16 27 29 42 8 16 40 35 44 50
50 55 63 41 91 80 64 49 46 25 39 28 31 31 8 82 85 85 88 65 63 54 14 81 10 5 2 357 356 10 28 31 38 14 15 47 8 27 30 43 33 36 39 37
66 51 80 71 356 73 51 94 73 43 39 34 40 39 40 93 65 91 73 87 114 95 323 86 358 357 30 5 22 42 38 11 355 351 17 27 37 38 50 54 39 44 40 29
44 37 72 62 8 95 62 55 49 69 48 51 53 45 59 87 78 37 99 93 112 115 63 65 17 40 19 53 55 49 32 4 347 335 302 5 330 343 24 82 73 54 67 59
30 23 56 60 46 30 51 63 66 55 49 36 69 89 85 87 93 59 98 77 90 81 38 346 50 353 91 91 76 39 28 357 353 359 358 353 342 325 230 177 124 98 90 75
Height
753 770 776 768 765 755 757 784 794 792 776 776 772 789 798 814 829 840 847 850 855 857 861 862 863 864 864 864 863 863 863 863 860 861 858 856 855 849 848 844 843 843 842 841
758 776 759 750 755 761 761 774 795 798 780 783 774 780 801 805 824 831 838 841 850 852 856 861 862 864 863 862 862 860 861 862 862 861 859 857 854 851 848 845 844 843 841 840
772 776 753 760 762 768 769 782 781 781 770 757 764 805 814 839 830 834 836 842 849 858 860 859 862 864 864 863 862 862 861 860 862 861 859 857 854 850 847 845 843 841 840 838
759 753 764 765 770 773 787 771 774 776 778 795 792 857 849 854 848 844 843 847 856 859 862 863 865 865 866 866 864 863 861 860 860 859 858 857 853 850 849 845 843 841 839 837
770 768 768 775 777 771 784 769 772 767 771 787 801 826 849 860 856 848 853 851 854 857 861 863 865 866 867 866 863 863 862 861 860 860 858 856 853 850 847 844 842 840 838 835
764 753 764 770 765 765 767 775 771 762 767 800 783 798 868 848 844 857 858 856 856 859 861 863 864 864 864 864 863 863 862 863 861 859 857 854 852 849 846 844 842 840 837 834
777 795 782 770 780 769 778 788 807 813 805 808 775 825 856 847 842 848 856 860 860 857 860 860 862 862 864 864 863 865 864 863 862 858 857 854 852 850 847 845 842 839 837 834
804 835 808 778 783 792 790 798 817 843 831 811 805 855 872 846 848 848 851 856 857 860 864 865 866 864 867 868 868 866 866 865 862 859 857 855 853 850 847 844 841 839 836 834
801 813 779 780 778 780 796 810 792 810 793 803 843 865 859 847 848 847 858 859 866 866 867 866 864 865 872 871 869 868 867 865 863 860 857 855 853 851 848 845 842 839 836 834
790 812 779 778 776 779 795 786 813 803 830 831 840 859 865 858 856 854 858 861 867 866 865 866 870 871 873 872 871 871 866 866 864 860 858 856 854 851 848 845 842 840 837 834
789 804 802 784 804 810 804 812 809 807 822 834 864 866 842 850 850 852 857 857 861 864 866 867 871 874 875 874 873 872 869 867 864 862 860 858 854 851 848 845 843 840 838 836
797 811 822 807 797 795 801 815 814 833 833 842 847 867 838 841 843 849 854 860 864 864 868 869 874 878 878 878 877 874 871 869 866 864 861 858 855 852 849 846 843 841 839 838
808 817 834 815 816 810 816 813 815 817 815 847 841 869 839 841 846 851 861 861 860 865 869 875 878 880 881 881 878 876 873 871 868 866 863 859 857 853 850 848 845 843 841 840
811 819 826 835 830 817 822 821 820 825 842 835 843 852 850 850 850 854 856 857 860 866 873 879 881 882 883 882 881 879 875 873 870 867 865 862 859 856 853 849 847 845 843 841
815 828 818 817 818 816 821 827 825 833 833 845 841 851 852 849 850 853 855 861 864 872 878 881 882 885 884 884 882 880 878 875 872 870 867 864 861 859 855 852 850 847 845 843
814 836 824 835 821 821 825 823 826 831 834 838 841 852 842 847 852 863 865 865 867 875 883 884 885 886 887 885 884 882 880 877 875 872 870 866 864 861 858 855 852 850 847 845
823 829 831 851 840 827 850 841 840 838 836 846 859 854 846 851 857 864 866 869 874 879 884 885 887 887 887 886 885 883 881 879 877 874 871 867 865 862 860 858 855 853 851 849
825 827 835 845 831 868 847 833 836 844 843 846 852 852 847 851 859 866 871 876 879 883 886 887 887 888 888 887 886 885 883 880 878 875 873 870 867 864 861 859 857 855 853 852
817 839 856 849 838 843 850 846 849 853 865 856 858 854 852 853 864 876 879 880 885 886 888 889 890 889 889 889 888 886 884 881 880 877 875 872 870 867 864 862 860 858 856 854
817 821 834 834 843 873 859 844 838 837 877 862 859 859 859 858 871 881 883 884 886 890 890 890 891 891 890 889 888 887 884 882 881 879 877 875 873 871 868 865 862 860 858 856
838 830 836 840 841 860 855 845 837 871 883 863 861 863 864 871 876 884 884 888 888 891 891 891 891 891 891 890 889 887 885 883 882 880 878 877 875 872 869 866 863 862 860 858
862 855 854 840 852 878 856 851 869 870 861 863 865 868 870 874 881 884 886 888 889 892 891 891 892 891 891 890 889 887 885 884 883 881 880 878 875 875 871 868 866 864 863 860
855 848 857 859 872 860 860 864 864 863 867 869 871 873 873 875 882 885 888 889 891 892 892 892 892 891 891 890 889 888 887 885 885 883 881 879 877 875 872 870 868 867 864 863
845 848 854 863 868 860 861 861 864 869 871 873 874 875 876 882 884 887 888 891 892 893 892 893 892 892 891 891 890 889 888 887 886 885 883 881 878 876 874 873 871 869 867 866
859 856 867 873 867 863 863 865 867 871 873 874 877 879 879 884 887 889 890 891 892 893 892 893 892 892 892 891 891 891 890 889 887 885 883 882 879 877 876 874 873 872 869 868
863 869 875 879 868 867 869 867 869 870 874 876 878 880 882 886 888 889 890 892 892 892 893 893 893 893 892 893 892 892 891 890 888 887 884 882 880 877 875 874 873 874 871 870